Location: Maiden
(35.5760°N, 81.2120°W)
Time: 08:11:03
(UTC-04:00)

Vanguard 1 - All Passes

Search period start: 10 August 2020 00:00
Search period end: 20 August 2020 00:00
Orbit: 649 x 3833 km, 34.3° (Epoch: 09 August)

Date Brightness Start Highest point End Pass type
(mag) Time Alt. Az. Time Alt. Az. Time Alt. Az.
10 Aug - 07:35:26 10° SSE 07:46:57 20° SE 08:00:36 10° E daylight
10 Aug - 09:50:42 10° SW 10:10:00 53° SE 10:31:39 10° ENE daylight
10 Aug - 12:13:18 10° WSW 12:36:40 81° SSE 12:56:35 10° E daylight
10 Aug - 14:40:24 10° W 15:04:03 84° S 15:19:09 10° ESE daylight
10 Aug - 17:09:18 10° WNW 17:28:15 55° SSW 17:39:01 10° SE daylight
10 Aug - 19:41:13 10° W 19:47:57 15° SW 19:53:10 10° SSW daylight
11 Aug - 07:53:32 10° S 08:07:18 27° SE 08:24:20 10° E daylight
11 Aug - 10:11:03 10° SW 10:31:03 61° SSE 10:53:14 10° ENE daylight
11 Aug - 12:34:41 10° WSW 12:58:19 85° S 13:17:50 10° E daylight
11 Aug - 15:02:10 10° W 15:25:30 80° SSW 15:40:06 10° ESE daylight
11 Aug - 17:31:14 10° WNW 17:48:50 45° SW 17:59:11 10° SSE daylight
12 Aug - 08:12:34 10° SSW 08:27:43 35° SE 08:47:05 10° E daylight
12 Aug - 10:31:42 10° SW 10:52:18 69° SSE 11:14:43 10° ENE daylight
12 Aug - 12:56:10 10° W 13:20:02 86° S 13:39:03 10° E daylight
12 Aug - 15:23:56 10° W 15:46:48 74° SSW 16:00:54 10° ESE daylight
12 Aug - 17:53:24 10° WNW 18:09:14 35° SW 18:19:01 10° SSE daylight
13 Aug - 06:22:58 10° SE 06:26:58 11° ESE 06:31:19 10° ESE visible
13 Aug - 08:32:09 10° SSW 08:48:17 44° SE 09:09:18 10° ENE daylight
13 Aug - 10:52:34 10° WSW 11:13:42 76° SSE 11:36:08 10° E daylight
13 Aug - 13:17:45 10° W 13:41:45 86° S 14:00:15 10° E daylight
13 Aug - 15:45:41 10° WNW 16:07:55 66° SSW 16:21:33 10° SE daylight
13 Aug - 18:15:57 10° W 18:29:26 26° SW 18:38:24 10° S daylight
14 Aug - 06:37:45 10° SSE 06:47:06 18° SE 06:58:44 10° E daylight
14 Aug - 08:52:10 10° SW 09:09:00 52° SE 09:31:12 10° ENE daylight
14 Aug - 11:13:39 10° WSW 11:35:16 81° SSE 11:57:32 10° E daylight
14 Aug - 13:39:23 10° W 14:03:25 84° S 14:21:22 10° ESE daylight
14 Aug - 16:07:29 10° WNW 16:28:50 57° SSW 16:42:00 10° SE daylight
14 Aug - 18:39:17 10° W 18:49:30 19° SW 18:57:01 10° SSW daylight
15 Aug - 06:55:46 10° S 07:07:16 25° SE 07:22:45 10° E daylight
15 Aug - 09:12:28 10° SW 09:29:56 61° SSE 09:52:54 10° ENE daylight
15 Aug - 11:34:53 10° WSW 11:56:57 85° S 12:18:56 10° E daylight
15 Aug - 14:01:01 10° W 14:24:59 80° SSW 14:42:24 10° ESE daylight
15 Aug - 16:29:24 10° WNW 16:49:31 48° SW 17:02:11 10° SSE daylight
15 Aug - 19:04:52 10° WSW 19:09:30 12° WSW 19:13:31 10° SW daylight
16 Aug - 07:14:45 10° S 07:27:32 33° SE 07:45:38 10° E daylight
16 Aug - 09:33:03 10° SW 09:51:05 69° SSE 10:14:31 10° ENE daylight
16 Aug - 11:56:15 10° W 12:18:43 87° S 12:40:18 10° E daylight
16 Aug - 14:22:39 10° W 14:46:24 74° SSW 15:03:17 10° ESE daylight
16 Aug - 16:51:31 10° WNW 17:10:00 38° SW 17:22:04 10° SSE daylight
17 Aug - 07:34:20 10° SSW 07:47:56 42° SE 08:07:58 10° ENE daylight
17 Aug - 09:53:51 10° WSW 10:12:25 76° SSE 10:36:06 10° E daylight
17 Aug - 12:17:40 10° W 12:40:28 86° S 13:01:38 10° E daylight
17 Aug - 14:44:19 10° WNW 15:07:38 67° SSW 15:23:59 10° SE daylight
17 Aug - 17:14:00 10° W 17:30:18 30° SW 17:41:30 10° S daylight
18 Aug - 05:40:54 10° SSE 05:47:48 15° ESE 05:56:24 10° E visible
18 Aug - 07:54:19 10° SSW 08:08:32 51° SE 08:29:58 10° ENE daylight
18 Aug - 10:14:49 10° WSW 10:33:56 81° SSE 10:57:39 10° E daylight
18 Aug - 12:39:08 10° W 13:02:13 84° S 13:22:53 10° ESE daylight
18 Aug - 15:06:01 10° WNW 15:28:39 58° SSW 15:44:28 10° SE daylight
18 Aug - 17:37:12 10° W 17:50:28 22° SW 18:00:16 10° S daylight
19 Aug - 05:58:37 10° S 06:07:51 22° SE 06:20:44 10° E visible
19 Aug - 08:14:35 10° SW 08:29:21 60° SSE 08:51:47 10° ENE daylight
19 Aug - 10:35:56 10° WSW 10:55:34 85° S 11:19:12 10° E daylight
19 Aug - 13:00:37 10° W 13:23:51 80° SSW 13:44:01 10° ESE daylight
19 Aug - 15:27:50 10° WNW 15:49:28 49° SW 16:04:42 10° SSE daylight
19 Aug - 18:01:55 10° W 18:10:32 15° WSW 18:17:38 10° SSW daylight
